Year,Month,Day,Hour,Minute,Value (Times are PST for temperature in C)
2016,07,21,00,00,15.00
2016,07,21,00,01,15.00
2016,07,21,00,02,15.00
2016,07,21,00,03,15.00
2016,07,21,00,04,15.00
2016,07,21,00,05,15.00
2016,07,21,00,06,15.00
2016,07,21,00,07,15.00
2016,07,21,00,08,15.00
2016,07,21,00,09,15.00
2016,07,21,00,10,15.00
2016,07,21,00,11,15.00
2016,07,21,00,12,15.00
2016,07,21,00,13,15.00
2016,07,21,00,14,15.00
2016,07,21,00,15,15.00
2016,07,21,00,16,15.00
2016,07,21,00,17,15.00
2016,07,21,00,18,15.00
2016,07,21,00,19,15.00
2016,07,21,00,20,14.90
2016,07,21,00,21,14.90
2016,07,21,00,22,14.90
2016,07,21,00,23,14.90
2016,07,21,00,24,14.80
2016,07,21,00,25,14.80
2016,07,21,00,26,14.80
2016,07,21,00,27,14.80
2016,07,21,00,28,14.80
2016,07,21,00,29,14.80
2016,07,21,00,30,14.80
2016,07,21,00,31,14.80
2016,07,21,00,32,14.80
2016,07,21,00,33,14.70
2016,07,21,00,34,14.70
2016,07,21,00,35,14.70
2016,07,21,00,36,14.70
2016,07,21,00,37,14.70
2016,07,21,00,38,14.60
2016,07,21,00,39,14.60
2016,07,21,00,40,14.60
2016,07,21,00,41,14.60
2016,07,21,00,42,14.60
2016,07,21,00,43,14.60
2016,07,21,00,44,14.60
2016,07,21,00,45,14.50
2016,07,21,00,46,14.50
2016,07,21,00,47,14.50
2016,07,21,00,48,14.50
2016,07,21,00,49,14.40
2016,07,21,00,50,14.40
2016,07,21,00,51,14.40
2016,07,21,00,52,14.40
2016,07,21,00,53,14.40
2016,07,21,00,54,14.30
2016,07,21,00,55,14.30
2016,07,21,00,56,14.30
2016,07,21,00,57,14.30
2016,07,21,00,58,14.20
2016,07,21,00,59,14.20
2016,07,21,01,00,14.20
2016,07,21,01,01,14.20
2016,07,21,01,02,14.20
2016,07,21,01,03,14.20
2016,07,21,01,04,14.10
2016,07,21,01,05,14.10
2016,07,21,01,06,14.10
2016,07,21,01,07,14.10
2016,07,21,01,08,14.10
2016,07,21,01,09,14.10
2016,07,21,01,10,14.10
2016,07,21,01,11,14.10
2016,07,21,01,12,14.10
2016,07,21,01,13,14.00
2016,07,21,01,14,14.00
2016,07,21,01,15,14.00
2016,07,21,01,16,13.90
2016,07,21,01,17,13.90
2016,07,21,01,18,13.90
2016,07,21,01,19,13.90
2016,07,21,01,20,13.90
2016,07,21,01,21,13.80
2016,07,21,01,22,13.80
2016,07,21,01,23,13.80
2016,07,21,01,24,13.80
2016,07,21,01,25,13.80
2016,07,21,01,26,13.80
2016,07,21,01,27,13.80
2016,07,21,01,28,13.80
2016,07,21,01,29,13.80
2016,07,21,01,30,13.80
2016,07,21,01,31,13.70
2016,07,21,01,32,13.70
2016,07,21,01,33,13.70
2016,07,21,01,34,13.70
2016,07,21,01,35,13.70
2016,07,21,01,36,13.70
2016,07,21,01,37,13.70
2016,07,21,01,38,13.70
2016,07,21,01,39,13.70
2016,07,21,01,40,13.70
2016,07,21,01,41,13.70
2016,07,21,01,42,13.70
2016,07,21,01,43,13.70
2016,07,21,01,44,13.70
2016,07,21,01,45,13.70
2016,07,21,01,46,13.70
2016,07,21,01,47,13.70
2016,07,21,01,48,13.60
2016,07,21,01,49,13.60
2016,07,21,01,50,13.60
2016,07,21,01,51,13.60
2016,07,21,01,52,13.60
2016,07,21,01,53,13.60
2016,07,21,01,54,13.60
2016,07,21,01,55,13.60
2016,07,21,01,56,13.60
2016,07,21,01,57,13.60
2016,07,21,01,58,13.60
2016,07,21,01,59,13.50
2016,07,21,02,00,13.50
2016,07,21,02,01,13.50
2016,07,21,02,02,13.50
2016,07,21,02,03,13.50
2016,07,21,02,04,13.40
2016,07,21,02,05,13.40
2016,07,21,02,06,13.40
2016,07,21,02,07,13.40
2016,07,21,02,08,13.40
2016,07,21,02,09,13.40
2016,07,21,02,10,13.40
2016,07,21,02,11,13.30
2016,07,21,02,12,13.30
2016,07,21,02,13,13.30
2016,07,21,02,14,13.30
2016,07,21,02,15,13.30
2016,07,21,02,16,13.30
2016,07,21,02,17,13.30
2016,07,21,02,18,13.30
2016,07,21,02,19,13.30
2016,07,21,02,20,13.30
2016,07,21,02,21,13.30
2016,07,21,02,22,13.30
2016,07,21,02,23,13.30
2016,07,21,02,24,13.30
2016,07,21,02,25,13.30
2016,07,21,02,26,13.20
2016,07,21,02,27,13.20
2016,07,21,02,28,13.20
2016,07,21,02,29,13.20
2016,07,21,02,30,13.20
2016,07,21,02,31,13.20
2016,07,21,02,32,13.20
2016,07,21,02,33,13.20
2016,07,21,02,34,13.20
2016,07,21,02,35,13.20
2016,07,21,02,36,13.20
2016,07,21,02,37,13.20
2016,07,21,02,38,13.10
2016,07,21,02,39,13.10
2016,07,21,02,40,13.10
2016,07,21,02,41,13.10
2016,07,21,02,42,13.10
2016,07,21,02,43,13.10
2016,07,21,02,44,13.10
2016,07,21,02,45,13.00
2016,07,21,02,46,13.00
2016,07,21,02,47,13.00
2016,07,21,02,48,13.00
2016,07,21,02,49,12.90
2016,07,21,02,50,12.90
2016,07,21,02,51,12.90
2016,07,21,02,52,12.90
2016,07,21,02,53,12.90
2016,07,21,02,54,12.80
2016,07,21,02,55,12.80
2016,07,21,02,56,12.80
2016,07,21,02,57,12.80
2016,07,21,02,58,12.80
2016,07,21,02,59,12.80
2016,07,21,03,00,12.80
2016,07,21,03,01,12.80
2016,07,21,03,02,12.80
2016,07,21,03,03,12.80
2016,07,21,03,04,12.80
2016,07,21,03,05,12.80
2016,07,21,03,06,12.80
2016,07,21,03,07,12.80
2016,07,21,03,08,12.80
2016,07,21,03,09,12.80
2016,07,21,03,10,12.80
2016,07,21,03,11,12.80
2016,07,21,03,12,12.80
2016,07,21,03,13,12.80
2016,07,21,03,14,12.80
2016,07,21,03,15,12.70
2016,07,21,03,16,12.70
2016,07,21,03,17,12.70
2016,07,21,03,18,12.70
2016,07,21,03,19,12.70
2016,07,21,03,20,12.70
2016,07,21,03,21,12.70
2016,07,21,03,22,12.70
2016,07,21,03,23,12.70
2016,07,21,03,24,12.70
2016,07,21,03,25,12.70
2016,07,21,03,26,12.70
2016,07,21,03,27,12.70
2016,07,21,03,28,12.60
2016,07,21,03,29,12.60
2016,07,21,03,30,12.60
2016,07,21,03,31,12.60
2016,07,21,03,32,12.60
2016,07,21,03,33,12.60
2016,07,21,03,34,12.60
2016,07,21,03,35,12.60
2016,07,21,03,36,12.50
2016,07,21,03,37,12.50
2016,07,21,03,38,12.50
2016,07,21,03,39,12.50
2016,07,21,03,40,12.50
2016,07,21,03,41,12.50
2016,07,21,03,42,12.40
2016,07,21,03,43,12.40
2016,07,21,03,44,12.40
2016,07,21,03,45,12.40
2016,07,21,03,46,12.40
2016,07,21,03,47,12.40
2016,07,21,03,48,12.30
2016,07,21,03,49,12.30
2016,07,21,03,50,12.30
2016,07,21,03,51,12.30
2016,07,21,03,52,12.30
2016,07,21,03,53,12.30
2016,07,21,03,54,12.30
2016,07,21,03,55,12.30
2016,07,21,03,56,12.30
2016,07,21,03,57,12.30
2016,07,21,03,58,12.30
2016,07,21,03,59,12.30
2016,07,21,04,00,12.30
2016,07,21,04,01,12.30
2016,07,21,04,02,12.30
2016,07,21,04,03,12.30
2016,07,21,04,04,12.30
2016,07,21,04,05,12.30
2016,07,21,04,06,12.30
2016,07,21,04,07,12.30
2016,07,21,04,08,12.30
2016,07,21,04,09,12.30
2016,07,21,04,10,12.30
2016,07,21,04,11,12.30
2016,07,21,04,12,12.30
2016,07,21,04,13,12.30
2016,07,21,04,14,12.30
2016,07,21,04,15,12.30
2016,07,21,04,16,12.30
2016,07,21,04,17,12.30
2016,07,21,04,18,12.30
2016,07,21,04,19,12.30
2016,07,21,04,20,12.30
2016,07,21,04,21,12.30
2016,07,21,04,22,12.30
2016,07,21,04,23,12.20
2016,07,21,04,24,12.20
2016,07,21,04,25,12.20
2016,07,21,04,26,12.20
2016,07,21,04,27,12.20
2016,07,21,04,28,12.20
2016,07,21,04,29,12.20
2016,07,21,04,30,12.10
2016,07,21,04,31,12.10
2016,07,21,04,32,12.10
2016,07,21,04,33,12.10
2016,07,21,04,34,12.10
2016,07,21,04,35,12.10
2016,07,21,04,36,12.10
2016,07,21,04,37,12.10
2016,07,21,04,38,12.10
2016,07,21,04,39,12.10
2016,07,21,04,40,12.10
2016,07,21,04,41,12.10
2016,07,21,04,42,12.10
2016,07,21,04,43,12.10
2016,07,21,04,44,12.10
2016,07,21,04,45,12.10
2016,07,21,04,46,12.10
2016,07,21,04,47,12.10
2016,07,21,04,48,12.10
2016,07,21,04,49,12.10
2016,07,21,04,50,12.10
2016,07,21,04,51,12.00
2016,07,21,04,52,12.00
2016,07,21,04,53,12.00
2016,07,21,04,54,12.00
2016,07,21,04,55,12.00
2016,07,21,04,56,12.00
2016,07,21,04,57,12.00
2016,07,21,04,58,11.90
2016,07,21,04,59,11.90
2016,07,21,05,00,11.90
2016,07,21,05,01,11.90
2016,07,21,05,02,11.90
2016,07,21,05,03,11.90
2016,07,21,05,04,11.90
2016,07,21,05,05,11.90
2016,07,21,05,06,11.90
2016,07,21,05,07,11.90
2016,07,21,05,08,11.90
2016,07,21,05,09,11.90
2016,07,21,05,10,11.90
2016,07,21,05,11,11.90
2016,07,21,05,12,11.90
2016,07,21,05,13,11.90
2016,07,21,05,14,11.90
2016,07,21,05,15,11.90
2016,07,21,05,16,11.90
2016,07,21,05,17,11.90
2016,07,21,05,18,11.90
2016,07,21,05,19,11.90
2016,07,21,05,20,11.80
2016,07,21,05,21,11.80
2016,07,21,05,22,11.80
2016,07,21,05,23,11.80
2016,07,21,05,24,11.80
2016,07,21,05,25,11.80
2016,07,21,05,26,11.80
2016,07,21,05,27,11.80
2016,07,21,05,28,11.80
2016,07,21,05,29,11.80
2016,07,21,05,30,11.80
2016,07,21,05,31,11.80
2016,07,21,05,32,11.80
2016,07,21,05,33,11.80
2016,07,21,05,34,11.80
2016,07,21,05,35,11.80
2016,07,21,05,36,11.80
2016,07,21,05,37,11.80
2016,07,21,05,38,11.80
2016,07,21,05,39,11.80
2016,07,21,05,40,11.70
2016,07,21,05,41,11.70
2016,07,21,05,42,11.70
2016,07,21,05,43,11.70
2016,07,21,05,44,11.70
2016,07,21,05,45,11.70
2016,07,21,05,46,11.70
2016,07,21,05,47,11.70
2016,07,21,05,48,11.70
2016,07,21,05,49,11.70
2016,07,21,05,50,11.70
2016,07,21,05,51,11.70
2016,07,21,05,52,11.60
2016,07,21,05,53,11.60
2016,07,21,05,54,11.60
2016,07,21,05,55,11.60
2016,07,21,05,56,11.60
2016,07,21,05,57,11.60
2016,07,21,05,58,11.70
2016,07,21,05,59,11.60
2016,07,21,06,00,11.60
2016,07,21,06,01,11.60
2016,07,21,06,02,11.60
2016,07,21,06,03,11.60
2016,07,21,06,04,11.60
2016,07,21,06,05,11.60
2016,07,21,06,06,11.60
2016,07,21,06,07,11.60
2016,07,21,06,08,11.60
2016,07,21,06,09,11.60
2016,07,21,06,10,11.70
2016,07,21,06,11,11.70
2016,07,21,06,12,11.70
2016,07,21,06,13,11.70
2016,07,21,06,14,11.70
2016,07,21,06,15,11.70
2016,07,21,06,16,11.70
2016,07,21,06,17,11.70
2016,07,21,06,18,11.70
2016,07,21,06,19,11.70
2016,07,21,06,20,11.70
2016,07,21,06,21,11.70
2016,07,21,06,22,11.70
2016,07,21,06,23,11.70
2016,07,21,06,24,11.70
2016,07,21,06,25,11.70
2016,07,21,06,26,11.70
2016,07,21,06,27,11.70
2016,07,21,06,28,11.80
2016,07,21,06,29,11.80
2016,07,21,06,30,11.80
2016,07,21,06,31,11.80
2016,07,21,06,32,11.80
2016,07,21,06,33,11.80
2016,07,21,06,34,11.80
2016,07,21,06,35,11.80
2016,07,21,06,36,11.80
2016,07,21,06,37,11.80
2016,07,21,06,38,11.80
2016,07,21,06,39,11.80
2016,07,21,06,40,11.80
2016,07,21,06,41,11.80
2016,07,21,06,42,11.80
2016,07,21,06,43,11.80
2016,07,21,06,44,11.80
2016,07,21,06,45,11.80
2016,07,21,06,46,11.80
2016,07,21,06,47,11.80
2016,07,21,06,48,11.80
2016,07,21,06,49,11.90
2016,07,21,06,50,11.90
2016,07,21,06,51,11.90
2016,07,21,06,52,11.90
2016,07,21,06,53,11.90
2016,07,21,06,54,12.00
2016,07,21,06,55,12.00
2016,07,21,06,56,12.00
2016,07,21,06,57,12.10
2016,07,21,06,58,12.10
2016,07,21,06,59,12.10
2016,07,21,07,00,12.10
2016,07,21,07,01,12.10
2016,07,21,07,02,12.20
2016,07,21,07,03,12.20
2016,07,21,07,04,12.20
2016,07,21,07,05,12.20
2016,07,21,07,06,12.20
2016,07,21,07,07,12.30
2016,07,21,07,08,12.30
2016,07,21,07,09,12.30
2016,07,21,07,10,12.40
2016,07,21,07,11,12.40
2016,07,21,07,12,12.50
2016,07,21,07,13,12.50
2016,07,21,07,14,12.60
2016,07,21,07,15,12.60
2016,07,21,07,16,12.70
2016,07,21,07,17,12.70
2016,07,21,07,18,12.70
2016,07,21,07,19,12.70
2016,07,21,07,20,12.80
2016,07,21,07,21,12.80
2016,07,21,07,22,12.80
2016,07,21,07,23,12.80
2016,07,21,07,24,12.80
2016,07,21,07,25,12.80
2016,07,21,07,26,12.90
2016,07,21,07,27,12.90
2016,07,21,07,28,12.90
2016,07,21,07,29,12.90
2016,07,21,07,30,12.90
2016,07,21,07,31,13.00
2016,07,21,07,32,13.00
2016,07,21,07,33,13.00
2016,07,21,07,34,13.10
2016,07,21,07,35,13.10
2016,07,21,07,36,13.10
2016,07,21,07,37,13.20
2016,07,21,07,38,13.20
2016,07,21,07,39,13.20
2016,07,21,07,40,13.30
2016,07,21,07,41,13.30
2016,07,21,07,42,13.30
2016,07,21,07,43,13.30
2016,07,21,07,44,13.40
2016,07,21,07,45,13.40
2016,07,21,07,46,13.50
2016,07,21,07,47,13.50
2016,07,21,07,48,13.50
2016,07,21,07,49,13.60
2016,07,21,07,50,13.60
2016,07,21,07,51,13.60
2016,07,21,07,52,13.70
2016,07,21,07,53,13.70
2016,07,21,07,54,13.70
2016,07,21,07,55,13.80
2016,07,21,07,56,13.80
2016,07,21,07,57,13.90
2016,07,21,07,58,13.90
2016,07,21,07,59,14.00
2016,07,21,08,00,14.00
2016,07,21,08,01,14.10
2016,07,21,08,02,14.20
2016,07,21,08,03,14.30
2016,07,21,08,04,14.30
2016,07,21,08,05,14.40
2016,07,21,08,06,14.50
2016,07,21,08,07,14.60
2016,07,21,08,08,14.70
2016,07,21,08,09,14.80
2016,07,21,08,10,14.90
2016,07,21,08,11,15.00
2016,07,21,08,12,15.00
2016,07,21,08,13,15.10
2016,07,21,08,14,15.30
2016,07,21,08,15,15.40
2016,07,21,08,16,15.60
2016,07,21,08,17,15.80
2016,07,21,08,18,15.90
2016,07,21,08,19,16.00
2016,07,21,08,20,16.10
2016,07,21,08,21,16.30
2016,07,21,08,22,16.40
2016,07,21,08,23,16.50
2016,07,21,08,24,16.60
2016,07,21,08,25,16.70
2016,07,21,08,26,16.80
2016,07,21,08,27,16.90
2016,07,21,08,28,16.90
2016,07,21,08,29,17.00
2016,07,21,08,30,17.10
2016,07,21,08,31,17.20
2016,07,21,08,32,17.30
2016,07,21,08,33,17.40
2016,07,21,08,34,17.50
2016,07,21,08,35,17.60
2016,07,21,08,36,17.70
2016,07,21,08,37,17.80
2016,07,21,08,38,17.90
2016,07,21,08,39,17.90
2016,07,21,08,40,18.00
2016,07,21,08,41,18.00
2016,07,21,08,42,18.10
2016,07,21,08,43,18.20
2016,07,21,08,44,18.20
2016,07,21,08,45,18.30
2016,07,21,08,46,18.40
2016,07,21,08,47,18.50
2016,07,21,08,48,18.60
2016,07,21,08,49,18.60
2016,07,21,08,50,18.70
2016,07,21,08,51,18.80
2016,07,21,08,52,18.80
2016,07,21,08,53,18.90
2016,07,21,08,54,18.90
2016,07,21,08,55,19.00
2016,07,21,08,56,19.10
2016,07,21,08,57,19.20
2016,07,21,08,58,19.30
2016,07,21,08,59,19.30
2016,07,21,09,00,19.40
2016,07,21,09,01,19.50
2016,07,21,09,02,19.60
2016,07,21,09,03,19.70
2016,07,21,09,04,19.70
2016,07,21,09,05,19.80
2016,07,21,09,06,19.80
2016,07,21,09,07,19.80
2016,07,21,09,08,19.90
2016,07,21,09,09,19.90
2016,07,21,09,10,19.90
2016,07,21,09,11,19.90
2016,07,21,09,12,19.90
2016,07,21,09,13,19.90
2016,07,21,09,14,19.90
2016,07,21,09,15,19.80
2016,07,21,09,16,19.80
2016,07,21,09,17,19.80
2016,07,21,09,18,19.90
2016,07,21,09,19,19.90
2016,07,21,09,20,19.90
2016,07,21,09,21,20.00
2016,07,21,09,22,20.00
2016,07,21,09,23,20.10
2016,07,21,09,24,20.10
2016,07,21,09,25,20.10
2016,07,21,09,26,20.20
2016,07,21,09,27,20.20
2016,07,21,09,28,20.30
2016,07,21,09,29,20.40
2016,07,21,09,30,20.40
2016,07,21,09,31,20.40
2016,07,21,09,32,20.40
2016,07,21,09,33,20.50
2016,07,21,09,34,20.50
2016,07,21,09,35,20.50
2016,07,21,09,36,20.50
2016,07,21,09,37,20.50
2016,07,21,09,38,20.40
2016,07,21,09,39,20.40
2016,07,21,09,40,20.40
2016,07,21,09,41,20.30
2016,07,21,09,42,20.30
2016,07,21,09,43,20.30
2016,07,21,09,44,20.20
2016,07,21,09,45,20.30
2016,07,21,09,46,20.20
2016,07,21,09,47,20.30
2016,07,21,09,48,20.30
2016,07,21,09,49,20.20
2016,07,21,09,50,20.30
2016,07,21,09,51,20.30
2016,07,21,09,52,20.30
2016,07,21,09,53,20.20
2016,07,21,09,54,20.20
2016,07,21,09,55,20.20
2016,07,21,09,56,20.30
2016,07,21,09,57,20.30
2016,07,21,09,58,20.30
2016,07,21,09,59,20.40
2016,07,21,10,00,20.40
2016,07,21,10,01,20.50
2016,07,21,10,02,20.50
2016,07,21,10,03,20.60
2016,07,21,10,04,20.70
2016,07,21,10,05,20.70
2016,07,21,10,06,20.70
2016,07,21,10,07,20.80
2016,07,21,10,08,20.80
2016,07,21,10,09,20.80
2016,07,21,10,10,20.80
2016,07,21,10,11,20.80
2016,07,21,10,12,20.80
2016,07,21,10,13,20.80
2016,07,21,10,14,20.80
2016,07,21,10,15,20.80
2016,07,21,10,16,20.80
2016,07,21,10,17,20.80
2016,07,21,10,18,20.90
2016,07,21,10,19,20.90
2016,07,21,10,20,20.90
2016,07,21,10,21,21.00
2016,07,21,10,22,21.10
2016,07,21,10,23,21.10
2016,07,21,10,24,21.10
2016,07,21,10,25,21.20
2016,07,21,10,26,21.30
2016,07,21,10,27,21.30
2016,07,21,10,28,21.40
2016,07,21,10,29,21.40
2016,07,21,10,30,21.40
2016,07,21,10,31,21.50
2016,07,21,10,32,21.50
2016,07,21,10,33,21.50
2016,07,21,10,34,21.50
2016,07,21,10,35,21.60
2016,07,21,10,36,21.60
2016,07,21,10,37,21.60
2016,07,21,10,38,21.60
2016,07,21,10,39,21.70
2016,07,21,10,40,21.80
2016,07,21,10,41,21.80
2016,07,21,10,42,21.80
2016,07,21,10,43,21.80
2016,07,21,10,44,21.80
2016,07,21,10,45,21.80
2016,07,21,10,46,21.90
2016,07,21,10,47,22.00
2016,07,21,10,48,22.10
2016,07,21,10,49,22.10
2016,07,21,10,50,22.20
2016,07,21,10,51,22.20
2016,07,21,10,52,22.20
2016,07,21,10,53,22.20
2016,07,21,10,54,22.20
2016,07,21,10,55,22.20
2016,07,21,10,56,22.20
2016,07,21,10,57,22.20
2016,07,21,10,58,22.20
2016,07,21,10,59,22.20
2016,07,21,11,00,22.30
2016,07,21,11,01,22.30
2016,07,21,11,02,22.40
2016,07,21,11,03,22.40
2016,07,21,11,04,22.40
2016,07,21,11,05,22.50
2016,07,21,11,06,22.50
2016,07,21,11,07,22.60
2016,07,21,11,08,22.50
2016,07,21,11,09,22.50
2016,07,21,11,10,22.50
2016,07,21,11,11,22.40
2016,07,21,11,12,22.50
2016,07,21,11,13,22.50
2016,07,21,11,14,22.60
2016,07,21,11,15,22.60
2016,07,21,11,16,22.70
2016,07,21,11,17,22.70
2016,07,21,11,18,22.80
2016,07,21,11,19,22.80
2016,07,21,11,20,22.90
2016,07,21,11,21,23.00
2016,07,21,11,22,23.00
2016,07,21,11,23,23.10
2016,07,21,11,24,23.10
2016,07,21,11,25,23.10
2016,07,21,11,26,23.10
2016,07,21,11,27,23.20
2016,07,21,11,28,23.30
2016,07,21,11,29,23.30
2016,07,21,11,30,23.30
2016,07,21,11,31,23.30
2016,07,21,11,32,23.30
2016,07,21,11,33,23.30
2016,07,21,11,34,23.30
2016,07,21,11,35,23.30
2016,07,21,11,36,23.20
2016,07,21,11,37,23.30
2016,07,21,11,38,23.30
2016,07,21,11,39,23.30
2016,07,21,11,40,23.40
2016,07,21,11,41,23.40
2016,07,21,11,42,23.40
2016,07,21,11,43,23.50
2016,07,21,11,44,23.60
2016,07,21,11,45,23.70
2016,07,21,11,46,23.80
2016,07,21,11,47,23.80
2016,07,21,11,48,23.80
2016,07,21,11,49,23.80
2016,07,21,11,50,23.70
2016,07,21,11,51,23.60
2016,07,21,11,52,23.50
2016,07,21,11,53,23.40
2016,07,21,11,54,23.40
2016,07,21,11,55,23.40
2016,07,21,11,56,23.30
2016,07,21,11,57,23.40
2016,07,21,11,58,23.40
2016,07,21,11,59,23.40
2016,07,21,12,00,23.50
2016,07,21,12,01,23.50
2016,07,21,12,02,23.60
2016,07,21,12,03,23.60
2016,07,21,12,04,23.70
2016,07,21,12,05,23.70
2016,07,21,12,06,23.70
2016,07,21,12,07,23.80
2016,07,21,12,08,23.80
2016,07,21,12,09,23.80
2016,07,21,12,10,23.90
2016,07,21,12,11,23.90
2016,07,21,12,12,23.90
2016,07,21,12,13,23.90
2016,07,21,12,14,23.90
2016,07,21,12,15,24.00
2016,07,21,12,16,24.10
2016,07,21,12,17,24.10
2016,07,21,12,18,24.10
2016,07,21,12,19,24.20
2016,07,21,12,20,24.20
2016,07,21,12,21,24.20
2016,07,21,12,22,24.30
2016,07,21,12,23,24.30
2016,07,21,12,24,24.30
2016,07,21,12,25,24.30
2016,07,21,12,26,24.30
2016,07,21,12,27,24.20
2016,07,21,12,28,24.20
2016,07,21,12,29,24.20
2016,07,21,12,30,24.10
2016,07,21,12,31,24.10
2016,07,21,12,32,24.10
2016,07,21,12,33,24.10
2016,07,21,12,34,24.10
2016,07,21,12,35,24.20
2016,07,21,12,36,24.20
2016,07,21,12,37,24.30
2016,07,21,12,38,24.40
2016,07,21,12,39,24.50
2016,07,21,12,40,24.60
2016,07,21,12,41,24.60
2016,07,21,12,42,24.70
2016,07,21,12,43,24.80
2016,07,21,12,44,24.90
2016,07,21,12,45,25.00
2016,07,21,12,46,25.10
2016,07,21,12,47,25.10
2016,07,21,12,48,25.20
2016,07,21,12,49,25.20
2016,07,21,12,50,25.30
2016,07,21,12,51,25.40
2016,07,21,12,52,25.30
2016,07,21,12,53,25.30
2016,07,21,12,54,25.30
2016,07,21,12,55,25.20
2016,07,21,12,56,25.20
2016,07,21,12,57,25.20
2016,07,21,12,58,25.30
2016,07,21,12,59,25.40
2016,07,21,13,00,25.40
2016,07,21,13,01,25.40
2016,07,21,13,02,25.40
2016,07,21,13,03,25.40
2016,07,21,13,04,25.50
2016,07,21,13,05,25.50
2016,07,21,13,06,25.60
2016,07,21,13,07,25.60
2016,07,21,13,08,25.70
2016,07,21,13,09,25.70
2016,07,21,13,10,25.80
2016,07,21,13,11,25.80
2016,07,21,13,12,25.90
2016,07,21,13,13,25.90
2016,07,21,13,14,25.90
2016,07,21,13,15,25.90
2016,07,21,13,16,25.80
2016,07,21,13,17,25.80
2016,07,21,13,18,25.80
2016,07,21,13,19,25.70
2016,07,21,13,20,25.70
2016,07,21,13,21,25.60
2016,07,21,13,22,25.60
2016,07,21,13,23,25.60
2016,07,21,13,24,25.70
2016,07,21,13,25,25.80
2016,07,21,13,26,25.80
2016,07,21,13,27,25.80
2016,07,21,13,28,25.70
2016,07,21,13,29,25.70
2016,07,21,13,30,25.70
2016,07,21,13,31,25.70
2016,07,21,13,32,25.60
2016,07,21,13,33,25.60
2016,07,21,13,34,25.50
2016,07,21,13,35,25.50
2016,07,21,13,36,25.50
2016,07,21,13,37,25.50
2016,07,21,13,38,25.60
2016,07,21,13,39,25.60
2016,07,21,13,40,25.60
2016,07,21,13,41,25.60
2016,07,21,13,42,25.70
2016,07,21,13,43,25.70
2016,07,21,13,44,25.80
2016,07,21,13,45,25.80
2016,07,21,13,46,25.80
2016,07,21,13,47,25.80
2016,07,21,13,48,25.80
2016,07,21,13,49,25.70
2016,07,21,13,50,25.70
2016,07,21,13,51,25.80
2016,07,21,13,52,25.80
2016,07,21,13,53,25.90
2016,07,21,13,54,25.90
2016,07,21,13,55,25.90
2016,07,21,13,56,25.90
2016,07,21,13,57,25.90
2016,07,21,13,58,26.00
2016,07,21,13,59,26.10
2016,07,21,14,00,26.20
2016,07,21,14,01,26.20
2016,07,21,14,02,26.30
2016,07,21,14,03,26.40
2016,07,21,14,04,26.40
2016,07,21,14,05,26.40
2016,07,21,14,06,26.50
2016,07,21,14,07,26.50
2016,07,21,14,08,26.60
2016,07,21,14,09,26.60
2016,07,21,14,10,26.60
2016,07,21,14,11,26.70
2016,07,21,14,12,26.70
2016,07,21,14,13,26.70
2016,07,21,14,14,26.80
2016,07,21,14,15,26.70
2016,07,21,14,16,26.70
2016,07,21,14,17,26.70
2016,07,21,14,18,26.70
2016,07,21,14,19,26.70
2016,07,21,14,20,26.70
2016,07,21,14,21,26.70
2016,07,21,14,22,26.70
2016,07,21,14,23,26.80
2016,07,21,14,24,26.90
2016,07,21,14,25,26.90
2016,07,21,14,26,26.80
2016,07,21,14,27,26.80
2016,07,21,14,28,26.70
2016,07,21,14,29,26.60
2016,07,21,14,30,26.50
2016,07,21,14,31,26.50
2016,07,21,14,32,26.40
2016,07,21,14,33,26.40
2016,07,21,14,34,26.50
2016,07,21,14,35,26.60
2016,07,21,14,36,26.60
2016,07,21,14,37,26.70
2016,07,21,14,38,26.80
2016,07,21,14,39,26.80
2016,07,21,14,40,26.90
2016,07,21,14,41,26.90
2016,07,21,14,42,26.90
2016,07,21,14,43,26.90
2016,07,21,14,44,27.00
2016,07,21,14,45,27.00
2016,07,21,14,46,27.10
2016,07,21,14,47,27.10
2016,07,21,14,48,27.10
2016,07,21,14,49,27.20
2016,07,21,14,50,27.20
2016,07,21,14,51,27.10
2016,07,21,14,52,27.10
2016,07,21,14,53,27.20
2016,07,21,14,54,27.20
2016,07,21,14,55,27.20
2016,07,21,14,56,27.10
2016,07,21,14,57,27.10
2016,07,21,14,58,27.10
2016,07,21,14,59,27.10
2016,07,21,15,00,27.00
2016,07,21,15,01,27.00
2016,07,21,15,02,27.10
2016,07,21,15,03,27.10
2016,07,21,15,04,27.10
2016,07,21,15,05,27.20
2016,07,21,15,06,27.20
2016,07,21,15,07,27.20
2016,07,21,15,08,27.10
2016,07,21,15,09,27.10
2016,07,21,15,10,27.10
2016,07,21,15,11,27.10
2016,07,21,15,12,27.10
2016,07,21,15,13,27.10
2016,07,21,15,14,27.10
2016,07,21,15,15,27.00
2016,07,21,15,16,26.90
2016,07,21,15,17,26.90
2016,07,21,15,18,26.90
2016,07,21,15,19,26.90
2016,07,21,15,20,26.90
2016,07,21,15,21,26.90
2016,07,21,15,22,26.90
2016,07,21,15,23,26.90
2016,07,21,15,24,26.90
2016,07,21,15,25,26.90
2016,07,21,15,26,27.00
2016,07,21,15,27,27.00
2016,07,21,15,28,27.00
2016,07,21,15,29,27.10
2016,07,21,15,30,27.10
2016,07,21,15,31,27.00
2016,07,21,15,32,27.00
2016,07,21,15,33,27.00
2016,07,21,15,34,27.00
2016,07,21,15,35,27.00
2016,07,21,15,36,27.10
2016,07,21,15,37,27.10
2016,07,21,15,38,27.10
2016,07,21,15,39,27.10
2016,07,21,15,40,27.20
2016,07,21,15,41,27.20
2016,07,21,15,42,27.20
2016,07,21,15,43,27.30
2016,07,21,15,44,27.30
2016,07,21,15,45,27.30
2016,07,21,15,46,27.30
2016,07,21,15,47,27.30
2016,07,21,15,48,27.40
2016,07,21,15,49,27.40
2016,07,21,15,50,27.40
2016,07,21,15,51,27.50
2016,07,21,15,52,27.50
2016,07,21,15,53,27.50
2016,07,21,15,54,27.50
2016,07,21,15,55,27.40
2016,07,21,15,56,27.40
2016,07,21,15,57,27.40
2016,07,21,15,58,27.50
2016,07,21,15,59,27.60
2016,07,21,16,00,27.70
2016,07,21,16,01,27.80
2016,07,21,16,02,27.80
2016,07,21,16,03,27.90
2016,07,21,16,04,27.90
2016,07,21,16,05,28.00
2016,07,21,16,06,28.00
2016,07,21,16,07,28.00
2016,07,21,16,08,28.10
2016,07,21,16,09,28.10
2016,07,21,16,10,28.10
2016,07,21,16,11,28.10
2016,07,21,16,12,28.10
2016,07,21,16,13,28.10
2016,07,21,16,14,28.10
2016,07,21,16,15,28.10
2016,07,21,16,16,28.10
2016,07,21,16,17,28.00
2016,07,21,16,18,27.90
2016,07,21,16,19,27.80
2016,07,21,16,20,27.70
2016,07,21,16,21,27.60
2016,07,21,16,22,27.60
2016,07,21,16,23,27.60
2016,07,21,16,24,27.60
2016,07,21,16,25,27.50
2016,07,21,16,26,27.50
2016,07,21,16,27,27.50
2016,07,21,16,28,27.40
2016,07,21,16,29,27.40
2016,07,21,16,30,27.30
2016,07,21,16,31,27.40
2016,07,21,16,32,27.30
2016,07,21,16,33,27.40
2016,07,21,16,34,27.30
2016,07,21,16,35,27.30
2016,07,21,16,36,27.30
2016,07,21,16,37,27.40
2016,07,21,16,38,27.30
2016,07,21,16,39,27.30
2016,07,21,16,40,27.30
2016,07,21,16,41,27.30
2016,07,21,16,42,27.30
2016,07,21,16,43,27.30
2016,07,21,16,44,27.30
2016,07,21,16,45,27.20
2016,07,21,16,46,27.20
2016,07,21,16,47,27.10
2016,07,21,16,48,27.10
2016,07,21,16,49,27.10
2016,07,21,16,50,27.10
2016,07,21,16,51,27.10
2016,07,21,16,52,27.20
2016,07,21,16,53,27.20
2016,07,21,16,54,27.20
2016,07,21,16,55,27.20
2016,07,21,16,56,27.20
2016,07,21,16,57,27.20
2016,07,21,16,58,27.20
2016,07,21,16,59,27.20
2016,07,21,17,00,27.20
2016,07,21,17,01,27.20
2016,07,21,17,02,27.20
2016,07,21,17,03,27.20
2016,07,21,17,04,27.20
2016,07,21,17,05,27.20
2016,07,21,17,06,27.10
2016,07,21,17,07,27.10
2016,07,21,17,08,27.20
2016,07,21,17,09,27.20
2016,07,21,17,10,27.20
2016,07,21,17,11,27.20
2016,07,21,17,12,27.20
2016,07,21,17,13,27.20
2016,07,21,17,14,27.20
2016,07,21,17,15,27.20
2016,07,21,17,16,27.20
2016,07,21,17,17,27.20
2016,07,21,17,18,27.20
2016,07,21,17,19,27.20